{"data":{"norad_id":52639,"epoch":"2026-09-20T02:12:19.223424Z","epoch_age_seconds":101615,"freshness":"FRESH","line1":"1 52639U 22052AT  26263.09188916  .00000992  00000+0  40503-4 0  9992","line2":"2 52639  53.1592  93.9616 0001140  86.8131 273.3002 15.34391218241459","mean_motion":15.34391218,"eccentricity":0.000114,"inclination_deg":53.1592,"raan_deg":93.9616,"arg_perigee_deg":86.8131,"mean_anomaly_deg":273.3002,"bstar":4.0503e-5,"rev_number":24145,"period_min":93.848295213587,"perigee_km":461.9494835233,"apogee_km":463.50920104934,"semimajor_km":6840.8663422863,"source":"CELESTRAK","updated_at":"2026-09-20T09:00:40.097558Z"}}